Location: Ferchesar
(52.6477°N, 12.4298°E)
Time: 16:07:41
(UTC+01:00)

Tiros 1 - Pass Details

Date: 05 December 2021
Orbit: 629 x 664 km, 48.4° (Epoch: 22 January)

Event Time Altitude Azimuth Distance (km) Brightness Sun altitude
Rises 18:32:31 0° 221° (SW) 2,914 11.3 -22.4°
Reaches altitude 10° 18:35:06 10° 209° (SSW) 2,013 10.1 -22.7°
Enters shadow 18:38:30 26° 163° (SSE) 1,249 8.5 -23.3°
Maximum altitude 18:38:58 27° 152° (SSE) 1,235 - -23.3°
Drops below altitude 10° 18:42:53 10° 96° (E) 2,037 - -23.9°
Sets 18:45:30 0° 84° (E) 2,955 - -24.3°
